GW4755 Weather Reports


Display with metric or nautical units.
time (UTC)temp
F
wind
direction
speed
MPH
gust
MPH
rain 1hr
in
rain 24hr
in
rain mn
in
humidity
%
barometer
mb
20260504191504 60 20 3.0 3.0 0.00 0.00 0.00 74 1002.0
20260504190004 61 44 0.0 2.0 0.00 0.00 0.00 73 1001.7
20260504184503 59 64 1.0 3.0 0.00 0.00 0.00 75 1001.7
20260504183004 58 346 0.0 0.0 0.00 0.00 0.00 78 1001.7
20260504181504 58 351 0.0 3.0 0.00 0.00 0.00 76 1002.0
20260504174505 57 333 0.0 0.0 0.00 0.00 0.00 81 1001.7
20260504173004 56 44 0.0 0.0 0.00 0.00 0.00 80 1001.7
20260504171504 56 328 0.0 0.0 0.00 0.00 0.00 84 1001.7
20260504150504 47 335 0.0 0.0 0.00 0.00 0.00 92 1001.7
20260504140504 45 353 0.0 0.0 0.00 0.00 0.00 92 1001.7
20260504110503 46 3 0.0 0.0 0.00 0.00 0.00 91 1001.0
20260504082004 49 0 0.0 0.0 0.00 0.00 0.00 89 1001.4
20260504045503 51 326 0.0 0.0 0.00 0.00 0.00 87 1001.0
20260504044003 51 346 0.0 0.0 0.00 0.00 0.00 87 1000.7
20260504042503 51 11 0.0 0.0 0.00 0.00 0.00 87 1000.7
20260504041003 51 336 0.0 0.0 0.00 0.00 0.00 87 1000.7
20260504035503 52 4 0.0 0.0 0.00 0.00 0.00 86 1000.7
20260504034003 52 325 0.0 0.0 0.00 0.00 0.00 85 1000.3
20260504033002 52 347 0.0 0.0 0.00 0.00 0.00 85 1000.3
20260504031503 53 13 0.0 0.0 0.00 0.00 0.00 84 1000.3
20260504030004 54 346 0.0 0.0 0.00 0.00 0.00 83 1000.0
20260504025002 54 340 0.0 0.0 0.00 0.00 0.00 83 1000.0
20260504023503 54 330 0.0 0.0 0.00 0.00 0.00 82 999.7
20260504022003 55 3 0.0 0.0 0.00 0.00 0.00 82 999.7
20260504015003 56 2 0.0 0.0 0.00 0.00 0.00 80 999.7
20260504013503 56 24 0.0 0.0 0.00 0.00 0.00 80 999.7
20260504012003 57 47 0.0 3.0 0.00 0.00 0.00 79 999.7
20260504010503 57 47 0.0 3.0 0.00 0.00 0.00 77 999.7
20260504005003 57 11 0.0 2.0 0.00 0.00 0.00 77 1000.0
20260504003504 58 14 0.0 3.0 0.00 0.00 0.00 76 1000.0
20260504002004 58 41 0.0 0.0 0.00 0.00 0.00 76 1000.0
20260503235003 58 51 3.0 4.0 0.00 0.00 0.00 74 999.7
20260503232004 59 53 0.0 4.0 0.00 0.00 0.00 72 999.7
20260503225003 59 84 0.0 0.0 0.00 0.00 0.00 74 999.3
20260503222003 60 93 3.0 6.0 0.00 0.00 0.00 71 999.3
20260503221002 60 52 0.0 6.0 0.00 0.00 0.00 71 999.3
20260503214004 59 66 0.0 3.0 0.00 0.00 0.00 68 999.3
20260503212503 59 357 0.0 2.0 0.00 0.00 0.00 72 999.3
20260503211004 59 32 0.0 2.0 0.00 0.00 0.00 74 999.3
20260503204003 59 338 0.0 1.0 0.00 0.00 0.00 71 999.3
20260503202503 58 54 0.0 1.0 0.00 0.00 0.00 71 999.7
20260503201003 58 59 0.0 0.0 0.00 0.00 0.00 74 999.7
20260503192503 56 51 0.0 0.0 0.00 0.00 0.00 77 999.7